Hourly Data Report for September 05, 2017

All times are specified in Local Standard Time (LST). Add 1 hour to adjust for Daylight Saving Time where and when it is observed.

TORONTO INTL A
ONTARIO

43°40'36.000" N
79°37'50.000" W
173.40 m
6158731
71624
YYZ

Download Data

Hourly Data (September 2017)
Hourly Data Report for September 5, 2017
Temp Definition
°C
Dew Point Temp Definition
°C
Rel Hum Definition
%
Wind Dir Definition
10's deg

Wind Spd Definition
km/h
Visibility Definition
km
Stn Press Definition
kPa
Hmdx Definition


Wind Chill Definition


Weather Definition


TIME
00:00 Legend Double Dagger 15.7 13.0 84 29 14 24.1 98.37     LegendNANA
01:00 Legend Double Dagger 15.9 12.4 79 30 18 24.1 98.41     Cloudy
02:00 Legend Double Dagger 14.6 12.3 86 29 13 24.1 98.47     LegendNANA
03:00 Legend Double Dagger 14.5 11.9 84 23 3 24.1 98.47     LegendNANA
04:00 Legend Double Dagger 14.4 12.3 87 21 4 24.1 98.50     Mainly Clear
05:00 Legend Double Dagger 13.8 12.0 89 21 9 24.1 98.55     LegendNANA
06:00 Legend Double Dagger 13.7 12.0 89 23 10 24.1 98.60     LegendNANA
07:00 Legend Double Dagger 14.0 12.7 92 25 10 24.1 98.62     Mostly Cloudy
08:00 Legend Double Dagger 15.3 13.2 87 28 16 24.1 98.63     LegendNANA
09:00 Legend Double Dagger 16.8 13.8 83 25 7 24.1 98.62     LegendNANA
10:00 Legend Double Dagger 18.6 13.4 71 18 8 24.1 98.57     Clear
11:00 Legend Double Dagger 20.8 13.9 64 25 17 24.1 98.60     LegendNANA
12:00 Legend Double Dagger 20.6 13.1 62 25 16 24.1 98.57     LegendNANA
13:00 Legend Double Dagger 15.3 12.3 82 28 27 19.3 98.58     Rain Showers
14:00 Legend Double Dagger 19.0 14.8 76 30 18 24.1 98.58     LegendNANA
15:00 Legend Double Dagger 20.7 12.5 59 29 19 24.1 98.58     LegendNANA
16:00 Legend Double Dagger 21.0 12.1 56 27 19 24.1 98.59     Mostly Cloudy
17:00 Legend Double Dagger 20.6 11.0 54 28 22 24.1 98.62     LegendNANA
18:00 Legend Double Dagger 19.3 9.7 53 31 24 24.1 98.69     LegendNANA
19:00 Legend Double Dagger 17.7 9.5 58 31 13 24.1 98.73     Mostly Cloudy
20:00 Legend Double Dagger 16.8 10.2 65 31 12 24.1 98.85     LegendNANA
21:00 Legend Double Dagger 15.0 9.9 71 29 13 24.1 98.91     LegendNANA
22:00 Legend Double Dagger 15.1 10.2 72 34 14 24.1 98.93     Mainly Clear
23:00 Legend Double Dagger 14.1 10.5 79 34 11 24.1 98.92     LegendNANA

Notes on Data Quality.

Legend

  • E = Estimated
  • M = Missing
  • NA = Not Available
  • ‡ = Partner data that is not subject to review by the National Climate Archives
Date modified: